Weather History for Shawnee, OK

Change the Weather History Date:

Monday, February 17, 2014

  Actual Average (KTIK) Record (KTIK)
Temperature  
Mean Temperature 58 °F -  
Max Temperature 69 °F 52 °F 78 °F (2011)
Min Temperature 46 °F 33 °F 15 °F (2001)
Degree Days  
Heating Degree Days 8    
Growing Degree Days 8 (Base 50)    
Moisture  
Dew Point 40 °F    
Average Humidity 53    
Maximum Humidity 100    
Minimum Humidity 26    
Precipitation  
Precipitation 0.00 in - - ()
Sea Level Pressure  
Sea Level Pressure 30.03 in    
Wind  
Wind Speed 11 mph (NW)    
Max Wind Speed 23 mph    
Max Gust Speed 31 mph    
Visibility 10 miles    
Events      
Averages and records for this station are not official NWS values.
T = Trace of Precipitation, MM = Missing Value Source: NWS Daily Summary

Daily Weather History Graph

Daily Weather History Graph

Search for Another Location

Airport:

Trip Planner

Search our weather history database for the weather conditions in past years. The results will help you decide how hot, cold, wet, or windy it might be!

Date:

Astronomy

Feb. 17, 2014 Rise Set
Actual Time 7:11 AM CST 6:12 PM CST
Civil Twilight 6:46 AM CST 6:37 PM CST
Nautical Twilight 6:16 AM CST 7:07 PM CST
Astronomical Twilight 5:46 AM CST 7:37 PM CST
Moon 8:59 PM CST (2/17) 8:20 AM CST (2/17)
Length of Visible Light 11h 51m
Length of Day
11h 00m
Waning Gibbous, 93% of the Moon is Illuminated
Feb 17
Waning Gibbous
Feb 22
Last Quarter
Mar 1
New
Mar 8
First Quarter
Mar 16
Full

Hourly Weather History & Observations

Time (CST) Temp. Windchill Dew Point Humidity Pressure Visibility Wind Dir Wind Speed Gust Speed Precip Events Conditions
12:15 AM 62.6 °F - 59.0 °F 88% 29.80 in 10.0 mi South 12.7 mph - N/A   Clear
12:35 AM 62.6 °F - 59.0 °F 88% 29.79 in 10.0 mi SSE 10.4 mph 17.3 mph N/A   Clear
12:55 AM 62.6 °F - 59.0 °F 88% 29.79 in 10.0 mi South 9.2 mph 16.1 mph N/A   Clear
1:15 AM 62.6 °F - 59.0 °F 88% 29.78 in 10.0 mi South 9.2 mph - N/A   Clear
1:35 AM 60.8 °F - 59.0 °F 94% 29.77 in 7.0 mi South 10.4 mph - N/A   Clear
1:55 AM 60.8 °F - 59.0 °F 94% 29.77 in 7.0 mi South 11.5 mph - N/A   Clear
2:15 AM 60.8 °F - 59.0 °F 94% 29.77 in 7.0 mi South 11.5 mph - N/A   Clear
2:35 AM 60.8 °F - 59.0 °F 94% 29.77 in 7.0 mi SSW 8.1 mph - N/A   Clear
2:55 AM 60.8 °F - 60.8 °F 100% 29.77 in 7.0 mi SSW 9.2 mph - N/A   Clear
3:15 AM 60.8 °F - 60.8 °F 100% 29.77 in 7.0 mi SSW 11.5 mph 16.1 mph N/A   Clear
3:35 AM 60.8 °F - 60.8 °F 100% 29.77 in 7.0 mi SSW 9.2 mph - N/A   Clear
3:55 AM 60.8 °F - 60.8 °F 100% 29.77 in 7.0 mi SW 9.2 mph - N/A   Clear
4:15 AM 60.8 °F - 59.0 °F 94% 29.80 in 7.0 mi WSW 9.2 mph - N/A   Clear
4:35 AM 60.8 °F - 59.0 °F 94% 29.82 in 7.0 mi WSW 10.4 mph - N/A   Clear
4:55 AM 60.8 °F - 59.0 °F 94% 29.84 in 7.0 mi West 11.5 mph 19.6 mph N/A   Clear
5:15 AM 60.8 °F - 55.4 °F 82% 29.85 in 10.0 mi WNW 13.8 mph 26.5 mph N/A   Clear
5:35 AM 60.8 °F - 46.4 °F 59% 29.87 in 10.0 mi NW 18.4 mph 24.2 mph N/A   Clear
5:55 AM 59.0 °F - 44.6 °F 59% 29.90 in 10.0 mi NNW 23.0 mph 29.9 mph N/A   Clear
6:15 AM 59.0 °F - 42.8 °F 55% 29.93 in 10.0 mi NNW 21.9 mph 31.1 mph N/A   Clear
6:35 AM 59.0 °F - 41.0 °F 51% 29.95 in 10.0 mi NNW 23.0 mph 31.1 mph N/A   Clear
6:55 AM 55.4 °F - 37.4 °F 51% 29.97 in 10.0 mi NNW 19.6 mph 25.3 mph N/A   Clear
7:15 AM 55.4 °F - 37.4 °F 51% 29.99 in 10.0 mi NNW 17.3 mph 24.2 mph N/A   Clear
7:35 AM 55.4 °F - 37.4 °F 51% 30.01 in 10.0 mi NNW 21.9 mph - N/A   Clear
7:55 AM 55.4 °F - 35.6 °F 47% 30.02 in 10.0 mi NNW 20.7 mph 29.9 mph N/A   Clear
8:15 AM 57.2 °F - 37.4 °F 48% 30.05 in 10.0 mi NNW 19.6 mph 26.5 mph N/A   Clear
8:35 AM 57.2 °F - 37.4 °F 48% 30.06 in 10.0 mi NNW 21.9 mph 26.5 mph N/A   Clear
8:55 AM 59.0 °F - 37.4 °F 45% 30.07 in 10.0 mi NNW 21.9 mph 31.1 mph N/A   Clear
9:15 AM 59.0 °F - 37.4 °F 45% 30.09 in 10.0 mi North 18.4 mph 27.6 mph N/A   Clear
9:35 AM 59.0 °F - 37.4 °F 45% 30.10 in 10.0 mi North 13.8 mph 25.3 mph N/A   Clear
9:55 AM 59.0 °F - 37.4 °F 45% 30.11 in 10.0 mi North 15.0 mph - N/A   Clear
10:15 AM 60.8 °F - 37.4 °F 42% 30.12 in 10.0 mi NNW 18.4 mph 25.3 mph N/A   Clear
10:35 AM 59.0 °F - 35.6 °F 42% 30.13 in 10.0 mi North 16.1 mph 24.2 mph N/A   Clear
10:55 AM 60.8 °F - 35.6 °F 39% 30.13 in 10.0 mi NNW 19.6 mph - N/A   Clear
11:15 AM 60.8 °F - 35.6 °F 39% 30.14 in 10.0 mi North 15.0 mph 19.6 mph N/A   Clear
11:35 AM 62.6 °F - 35.6 °F 37% 30.14 in 10.0 mi North 17.3 mph 24.2 mph N/A   Clear
11:55 AM 62.6 °F - 35.6 °F 37% 30.14 in 10.0 mi North 11.5 mph 18.4 mph N/A   Clear
12:15 PM 62.6 °F - 33.8 °F 34% 30.14 in 10.0 mi North 12.7 mph 20.7 mph N/A   Clear
12:35 PM 64.4 °F - 33.8 °F 32% 30.13 in 10.0 mi NNW 15.0 mph 20.7 mph N/A   Clear
12:55 PM 66.2 °F - 35.6 °F 32% 30.13 in 10.0 mi North 10.4 mph - N/A   Clear
1:15 PM 66.2 °F - 35.6 °F 32% 30.12 in 10.0 mi NNE 9.2 mph - N/A   Clear
1:35 PM 68.0 °F - 33.8 °F 28% 30.11 in 10.0 mi North 10.4 mph - N/A   Clear
1:55 PM 68.0 °F - 35.6 °F 30% 30.11 in 10.0 mi North 9.2 mph - N/A   Clear
2:15 PM 68.0 °F - 33.8 °F 28% 30.11 in 10.0 mi NNW 8.1 mph - N/A   Clear
2:35 PM 68.0 °F - 33.8 °F 28% 30.12 in 10.0 mi NNW 11.5 mph - N/A   Clear
2:55 PM 68.0 °F - 33.8 °F 28% 30.12 in 10.0 mi NW 9.2 mph - N/A   Clear
3:15 PM 68.0 °F - 33.8 °F 28% 30.12 in 10.0 mi WNW 4.6 mph - N/A   Clear
3:35 PM 69.8 °F - 33.8 °F 27% 30.12 in 10.0 mi NNW 8.1 mph - N/A   Clear
3:55 PM 68.0 °F - 32.0 °F 26% 30.12 in 10.0 mi NW 4.6 mph - N/A   Clear
4:15 PM 68.0 °F - 32.0 °F 26% 30.13 in 10.0 mi North 4.6 mph - N/A   Clear
4:35 PM 68.0 °F - 33.8 °F 28% 30.13 in 10.0 mi WNW 3.5 mph - N/A   Clear
4:55 PM 68.0 °F - 33.8 °F 28% 30.14 in 10.0 mi NNW 5.8 mph - N/A   Clear
5:15 PM 68.0 °F - 33.8 °F 28% 30.14 in 10.0 mi NNW 5.8 mph - N/A   Clear
5:35 PM 66.2 °F - 32.0 °F 28% 30.15 in 10.0 mi NW 3.5 mph - N/A   Clear
5:55 PM 62.6 °F - 32.0 °F 32% 30.15 in 10.0 mi NW 3.5 mph - N/A   Clear
6:15 PM 60.8 °F - 32.0 °F 34% 30.16 in 10.0 mi Calm Calm - N/A   Clear
6:35 PM 59.0 °F - 30.2 °F 34% 30.16 in 10.0 mi Calm Calm - N/A   Clear
6:55 PM 55.4 °F - 28.4 °F 36% 30.16 in 10.0 mi Calm Calm - N/A   Clear
7:15 PM 55.4 °F - 32.0 °F 41% 30.15 in 10.0 mi Calm Calm - N/A   Clear
7:35 PM 55.4 °F - 32.0 °F 41% 30.15 in 10.0 mi Calm Calm - N/A   Clear
7:55 PM 55.4 °F - 32.0 °F 41% 30.16 in 10.0 mi Calm Calm - N/A   Clear
8:15 PM 51.8 °F - 30.2 °F 44% 30.16 in 10.0 mi Calm Calm - N/A   Clear
8:35 PM 51.8 °F - 30.2 °F 44% 30.16 in 10.0 mi SSW 3.5 mph - N/A   Clear
8:55 PM 51.8 °F - 32.0 °F 47% 30.15 in 10.0 mi SSW 3.5 mph - N/A   Clear
9:15 PM 48.2 °F - 30.2 °F 50% 30.16 in 10.0 mi SSW 3.5 mph - N/A   Clear
9:35 PM 50.0 °F - 32.0 °F 50% 30.15 in 10.0 mi SSW 3.5 mph - N/A   Clear
9:55 PM 48.2 °F - 32.0 °F 54% 30.15 in 10.0 mi SSW 3.5 mph - N/A   Clear
10:15 PM 48.2 °F - 32.0 °F 54% - 10.0 mi Calm Calm - N/A   Clear
10:35 PM 46.4 °F 45.2 °F 30.2 °F 53% 30.15 in 10.0 mi SW 3.5 mph - N/A   Clear
10:55 PM 46.4 °F - 30.2 °F 53% 30.14 in 10.0 mi Calm Calm - N/A   Clear
11:15 PM 46.4 °F 44.3 °F 30.2 °F 53% 30.13 in 10.0 mi SSW 4.6 mph - N/A   Clear
11:35 PM 46.4 °F - 30.2 °F 53% 30.12 in 10.0 mi Calm Calm - N/A   Clear
11:55 PM 48.2 °F - 32.0 °F 54% 30.12 in 10.0 mi South 3.5 mph - N/A   Scattered Clouds